Regional Weather Roundup
Issued by NWS

Home | Current Version | Previous Version | Text Only | Print | Product List | Glossary Off
Versions: 1 2 3 4 5 6 7 8 9 10 11 12 13 14 15 16 17 18 19 20 21 22 23 24 25 26 27 28 29 30 31 32 33 34 35 36 37 38 39 40 41 42 43 44 45 46 47 48 49 50

000
ASUS43 KLOT 111010
RWRIL

ILLINOIS REGIONAL WEATHER ROUNDUP
NATIONAL WEATHER SERVICE CHICAGO/ROMEOVILLE IL
500 AM CDT FRI JUL 11 2014

NOTE: "FAIR" INDICATES FEW OR NO CLOUDS BELOW 12,000 FEET WITH NO
SIGNIFICANT WEATHER AND/OR OBSTRUCTIONS TO VISIBILITY.

* THESE STATIONS ARE NOT UNDER NWS QUALITY CONTROL. THEY ALSO MAY NOT
  REPORT WEATHER SUCH AS PRECIPITATION OR FOG.

ILZ001-002-007-009-015-016-024-111100-
NORTHWEST ILLINOIS

CITY           SKY/WX    TMP DP  RH WIND       PRES   REMARKS
MOLINE         PTCLDY    63  56  78 S7        30.14S
STERLING*      PTCLDY    57  54  88 CALM      30.17R
SAVANNA*       MOCLDY    60  57  88 E3        30.16R
$$

ILZ003-004-008-010-011-017-018-111100-
NORTH CENTRAL ILLINOIS

CITY           SKY/WX    TMP DP  RH WIND       PRES   REMARKS
ROCKFORD       PTCLDY    60  53  77 CALM      30.20R
FREEPORT*      PTCLDY    56  54  92 S5        30.19R
ROCHELLE*      CLEAR     55  53  92 SE5       30.18R
DE KALB*       CLEAR     57  51  80 S7        30.19S
PERU*          CLEAR     58  55  90 E3        30.18R
$$

ILZ005-006-012>014-019>023-111100-
NORTHEAST ILLINOIS

CITY           SKY/WX    TMP DP  RH WIND       PRES   REMARKS
CHICAGO-OHARE  PTCLDY    61  52  72 S6        30.18S
CHICAGO-MIDWAY MOCLDY    65  53  65 SE5       30.18S
AURORA         CLEAR     56  51  84 NE3       30.18S
LANSING*       PTCLDY    56  51  85 CALM      30.20R
JOLIET*        CLEAR     57  51  80 CALM      30.19S
WAUKEGAN       PTCLDY    58  54  86 CALM      30.18S
DUPAGE AIRPORT CLEAR     58  53  84 CALM      30.18S
KANKAKEE*      PTCLDY    54  54  98 CALM      30.19S
WHEELING       PTCLDY    61  55  81 CALM      30.19S
MORRIS*        CLEAR     58  56  95 CALM      30.18S
ROMEOVILLE*    CLEAR     56  51  81 SE6       30.18F
NORTHERLY ISL    N/A     65  54  67 SW1         N/A
$$

LMZ740>746-111100-
SOUTHERN LAKE MICHIGAN

STATION/POSITION SKY/WX   TEMP    WIND        PRES    VSBY  WAVE
                          AIR SEA DIR/SP/G                  HT/PER
                          (F)     (DEG/KT/KT) (MB)    (MI)  (FT/S)
SOUTHERN BUOY              61 58  200/  2/  4 1022.4F         0
WAUKEGAN HARBOR            62     200/  3/  3 1023.0F
HARRISON CRIB              67     160/  8/  9   N/A
BURNHAM HARBOR             64      CALM  /  4   N/A
CALUMET HARBOR             62      CALM  /  2 1022.9S
MICHIGAN CITY              60     120/  8/  9   N/A
$$

ILZ025>027-034>036-040-047-049-050-058-095>099-111100-
WEST-CENTRAL ILLINOIS

CITY           SKY/WX    TMP DP  RH WIND       PRES   REMARKS
QUINCY         CLEAR     61  54  77 SE6       30.14R
GALESBURG*     CLEAR     59  56  89 CALM      30.16R
MACOMB*        CLEAR     55  54  96 SE6       30.17S
JACKSONVILLE*  CLEAR     58  55  91 E5        30.16S
PITTSFIELD*    CLEAR     59  56  90 CALM      30.16S
$$

ILZ028>032-037-038-041>044-048-051>054-059>061-111100-
CENTRAL ILLINOIS

CITY           SKY/WX    TMP DP  RH WIND       PRES   REMARKS
PONTIAC        PTCLDY    55  55 100 CALM      30.17F FOG
BLOOMINGTON    MOCLDY    59  51  74 SE3       30.19S
DECATUR        CLEAR     57  53  86 E3        30.18R
PEORIA         CLEAR     64  54  69 SE3       30.17R
LACON*         PTCLDY    60  54  78 CALM      30.16R
LINCOLN*       CLEAR     56  54  91 CALM      30.15S
SPRINGFIELD    CLEAR     59  55  87 E5        30.16S
TAYLORVILLE    CLEAR     59  54  82 E5        30.16S
$$

ILZ033-039-045-046-055>057-062-063-111100-
EAST-CENTRAL ILLINOIS

CITY           SKY/WX    TMP DP  RH WIND       PRES   REMARKS
CHAMPAIGN      PTCLDY    58  55  90 E6        30.18S
RANTOUL*       PTCLDY    61  55  80 CALM      30.19S
MATTOON          N/A     61  54  77 SE3       30.17R
PARIS*         PTCLDY    54  53  97 CALM      30.18S
$$

ILZ079-100>102-111100-
SOUTHWEST ILLINOIS

CITY           SKY/WX    TMP DP  RH WIND       PRES   REMARKS
ALTON          CLEAR     61  60  96 E5        30.16R
BELLEVILLE     CLEAR     60  59  99 N1        30.14R
CAHOKIA*       CLEAR     61  58  90 CALM      30.14R
SPARTA*        CLEAR     61  57  88 E3        30.15R
$$

ILZ064>066-069>071-074>076-080>082-084>086-088>090-092>094-111100-
SOUTH-CENTRAL ILLINOIS

CITY           SKY/WX    TMP DP  RH WIND       PRES   REMARKS
CARBONDALE     CLEAR     61  60  97 CALM      30.14R FOG
CAIRO*         CLEAR     67  64  91 CALM      30.13R
MARION         FOG       61  61 100 CALM      30.15R VSB 1/2
MT. VERNON     CLEAR     61  55  82 NE3       30.15S
CENTRALIA*     CLEAR     60  56  89 E3        30.15S
SALEM*         CLEAR     66  59  78 E3        30.15S
METROPOLIS*      N/A     63  62  97 CALM      30.13R FOG
$$

ILZ067-068-072-073-078-083-087-091-111100-
SOUTHEAST ILLINOIS

CITY           SKY/WX    TMP DP  RH WIND       PRES   REMARKS
FLORA*         PTCLDY    58  55  89 CALM      30.16S
HARRISBURG*    CLEAR     61  61 100 CALM      30.15S
ROBINSON*      CLEAR     58  57  97 CALM      30.17S
CARMI*         PTCLDY    59  59  99 CALM      30.14S
$$

ABBREVIATIONS USED IN REMARKS
   TC - TEMPERATURE IN CELSIUS
  WCI - WIND CHILL INDEX
   HX - HEAT INDEX
  VSB - VISIBILITY
$$




USA.gov is the U.S. government's official web portal to all federal, state and local government web resources and services.